Riverbank, California, United States (95367)
Lat: 37.74N, Lon: 120.93W
Wx Zone: CAZ019
Local Info
Past Weather Observations for Friday, December 19, 2014

NOTE: This archive is for the closest National Weather Service station to Riverbank. Information may differ from the station used for current weather conditions.

Click here for Long-term Archive

Time Weather Temperature Dewpoint Humidity Pressure Winds Precip Visibility
23:53
Overcast
Light Rain
54°F / 12°C 52°F / 11°C 94% 30.18 in
(1022 mb)
SE 3.5 mph
(SE 6 kph)
0.03 in
(0.76 mm)
4SM
22:53
Overcast
54°F / 12°C 52°F / 11°C 94% 30.18 in
(1022 mb)
SSE 4.6 mph
(SSE 7 kph)
- 8SM
22:27
Overcast
54°F / 12°C 52°F / 11°C 94% 30.18 in
(1022 mb)
SSE 4.6 mph
(SSE 7 kph)
- 9SM
21:53
Overcast
54°F / 12°C 50°F / 10°C 88% 30.18 in
(1022 mb)
SSE 5.8 mph
(SSE 9 kph)
0.00 in
(0.00 mm)
9SM
21:49
Overcast
54°F / 12°C 50°F / 10°C 88% 30.18 in
(1022 mb)
SSE 5.8 mph
(SSE 9 kph)
0.00 in
(0.00 mm)
9SM
20:53
Overcast
Light Rain
54°F / 12°C 52°F / 11°C 94% 30.15 in
(1021 mb)
SSE 3.5 mph
(SSE 6 kph)
0.00 in
(0.00 mm)
7SM
19:53
Overcast
Light Rain
54°F / 12°C 52°F / 11°C 94% 30.15 in
(1021 mb)
S 4.6 mph
(S 7 kph)
0.02 in
(0.51 mm)
7SM
18:53
Overcast
Light Rain
54°F / 12°C 52°F / 11°C 94% 30.15 in
(1021 mb)
S 5.8 mph
(S 9 kph)
0.02 in
(0.51 mm)
7SM
17:53
Overcast
Rain
54°F / 12°C 52°F / 11°C 94% 30.15 in
(1021 mb)
SSE 4.6 mph
(SSE 7 kph)
0.03 in
(0.76 mm)
5SM
16:53
Mostly Cloudy
54°F / 12°C 52°F / 11°C 94% 30.15 in
(1021 mb)
SE 4.6 mph
(SE 7 kph)
0.02 in
(0.51 mm)
10SM
15:53
Overcast
Light Rain
54°F / 12°C 52°F / 11°C 94% 30.15 in
(1021 mb)
SE 6.9 mph
(SE 11 kph)
0.02 in
(0.51 mm)
9SM
14:53
Overcast
Light Rain
54°F / 12°C 52°F / 11°C 94% 30.18 in
(1022 mb)
SE 4.6 mph
(SE 7 kph)
0.04 in
(1.02 mm)
7SM
13:53
Overcast
Light Rain
55°F / 13°C 48°F / 9°C 77% 30.18 in
(1022 mb)
SSE 4.6 mph
(SSE 7 kph)
0.01 in
(0.25 mm)
7SM
12:53
Overcast
Light Rain
55°F / 13°C 46°F / 8°C 72% 30.18 in
(1022 mb)
SE 5.8 mph
(SE 9 kph)
0.00 in
(0.00 mm)
6SM
11:53
Mostly Cloudy
55°F / 13°C 46°F / 8°C 72% 30.18 in
(1022 mb)
SE 9.2 mph
(SE 15 kph)
0.00 in
(0.00 mm)
10SM
10:53
Mostly Cloudy
54°F / 12°C 45°F / 7°C 72% 30.21 in
(1023 mb)
SSE 8.1 mph
(SSE 13 kph)
- 10SM
09:53
Overcast
52°F / 11°C 45°F / 7°C 77% 30.21 in
(1023 mb)
SSE 8.1 mph
(SSE 13 kph)
0.00 in
(0.00 mm)
10SM
08:53
Overcast
52°F / 11°C 45°F / 7°C 77% 30.21 in
(1023 mb)
SSE 4.6 mph
(SSE 7 kph)
- 10SM
07:53
Mostly Cloudy
52°F / 11°C 45°F / 7°C 77% 30.15 in
(1021 mb)
SSE 8.1 mph
(SSE 13 kph)
- 10SM
06:53
Clear
50°F / 10°C 45°F / 7°C 82% 30.15 in
(1021 mb)
SE 6.9 mph
(SE 11 kph)
- 10SM
05:53
Overcast
52°F / 11°C 45°F / 7°C 77% 30.15 in
(1021 mb)
SE 8.1 mph
(SE 13 kph)
0.00 in
(0.00 mm)
10SM
04:53
Overcast
50°F / 10°C 45°F / 7°C 82% 30.18 in
(1022 mb)
SE 6.9 mph
(SE 11 kph)
- 10SM
03:53
Mostly Cloudy
48°F / 9°C 45°F / 7°C 87% 30.15 in
(1021 mb)
SE 9.2 mph
(SE 15 kph)
- 10SM
02:53
Mostly Cloudy
48°F / 9°C 45°F / 7°C 87% 30.21 in
(1023 mb)
SE 8.1 mph
(SE 13 kph)
- 9SM
01:53
Mostly Cloudy
Fog And Mist
48°F / 9°C 46°F / 8°C 94% 30.21 in
(1023 mb)
Calm - 6SM
00:53
Partly Cloudy
Fog And Mist
48°F / 9°C 46°F / 8°C 94% 30.18 in
(1022 mb)
SE 4.6 mph
(SE 7 kph)
- 6SM
Time Weather Temperature Dewpoint Humidity Pressure Winds Precip Visibility


Weather for websites

WeatherForYou.com, LLC is not responsible for any damages or problems caused by this service. Current weather conditions are obtained from the closest station including government and personal stations which may have varying degrees of accuracy. Weather forecasts are derived from the NOAA NDFD. Like all things, this site belongs to Jesus Christ... He just trusts me to maintain it. If you have any questions or comments email webmaster@weatherforyou.com

Copyright © 2014, WeatherForYou.com LLC. All rights reserved.